Location: Sungai Igah
(2.7333°N, 114.2500°E)
Time: 18:09:37
(UTC+00:00)

Gbstr 26 Del rocket - Pass Details

Date: 14 June 2021
Orbit: 492 x 1264 km, 51.8° (Epoch: 24 July)

Event Time Altitude Azimuth Distance (km) Brightness Sun altitude
Exits shadow 20:23:27 57° 14° (NNE) 708 3.4 -26.1°
Drops below altitude 10° 20:27:20 10° 32° (NNE) 2,094 6.5 -25.2°
Sets 20:29:56 0° 33° (NNE) 3,135 7.6 -24.7°
